{"data":{"norad_id":62188,"epoch":"2026-09-19T14:36:41.232384Z","epoch_age_seconds":387547,"freshness":"STALE","line1":"1 62188U 24227A   26262.60881056  .00000518  00000+0  00000+0 0  9996","line2":"2 62188  63.8372  27.5816 6979521 269.4012  17.4561  2.00626286 13143","mean_motion":2.00626286,"eccentricity":0.6979521,"inclination_deg":63.8372,"raan_deg":27.5816,"arg_perigee_deg":269.4012,"mean_anomaly_deg":17.4561,"bstar":0,"rev_number":1314,"period_min":717.75240857522,"perigee_km":1642.6892065359,"apogee_km":38710.667461553,"semimajor_km":26554.815334044,"source":"CELESTRAK","updated_at":"2026-09-23T09:00:21.292890Z"}}